Location: Winthrop
(48.4780°N, 120.1850°W)
Time: 19:04:19
(UTC-08:00)

Envisat - Pass Details

Date: 26 November 2022
Orbit: 763 x 765 km, 98.2° (Epoch: 05 February)

Event Time Altitude Azimuth Distance (km) Brightness Sun altitude
Rises 04:01:47 0° 17° (NNE) 3,245 6.5 -33.0°
Reaches altitude 10° 04:04:09 10° 21° (NNE) 2,314 5.7 -32.6°
Enters shadow 04:07:28 38° 42° (NE) 1,155 4.1 -32.1°
